Starlink 5317

operational
NORAD ID: 55283 Int'l Des: 2023-010 Owner: SPXS Country: US Constellation: starlink
LEOCIRCULAR

关于 Starlink 5317

正在加载描述...

实时位置

正在加载3D地球...

即将过境

高度历史

Altitude vs Time

uPlot chart will show altitude changes over time

两行轨道根数

1 55283U 23010Q 25304.28642451 .00000337 00000-0 36069-4 0 9996
2 55283 70.0001 10.6852 0003046 274.6183 85.4628 14.98329203153394
Epoch: Oct 31, 2025 • Age: 10 hours

当前状态

高度 579.9 km
速度 7.57 km/s
星下点 45.60°N, 100.51°E
发射日期 Jan 19, 2023
运行时间 2.7 years
类型 internet

技术详情

分类 Payload
质量 305.00 kg
干质量 290.00 kg
总质量 305.00 kg
长度 0.20 m
直径 2.80 m
跨度 9.00 m
形状 Box + pan
制造商 SPXS
平台类型 Starlink
阶段状态 In Orbit
所有者/国家 SPXS/US

大型星座

Loading constellations...